Temperature
3 3 2 2 2 1 1 0 -1 -3 -2 -0 -0 1 1 1 0 -0 -0 -0 -1 -1 -2 -2 -2 -2 -2 -2 -2 -2 -2 -2 -2 -2 -2 -2 -2 -2
3 2 2 2 1 1 0 -0 -1 -2 -3 -2 -1 -1 -1 -1 -1 -1 -1 -2 -2 -2 -2 -3 -3 -2 -2 -2 -2 -2 -3 -3 -3 -3 -2 -2 -2 -2
2 1 1 1 0 -0 -1 -1 -2 -3 -4 -2 -2 -2 -2 -2 -2 -2 -2 -2 -3 -3 -3 -3 -3 -3 -3 -3 -3 -3 -3 -3 -3 -3 -3 -3 -3 -2
1 0 0 -0 -1 -1 -1 -2 -2 -3 -4 -3 -3 -3 -3 -3 -3 -3 -3 -3 -4 -4 -4 -4 -4 -4 -4 -3 -3 -4 -3 -3 -3 -3 -3 -3 -3 -3
-0 -1 -1 -1 -2 -2 -2 -2 -3 -3 -4 -4 -4 -4 -4 -4 -4 -4 -4 -4 -4 -4 -5 -5 -5 -4 -4 -4 -4 -4 -4 -4 -4 -4 -4 -4 -4 -4
-1 -1 -2 -2 -2 -2 -2 -3 -3 -3 -4 -5 -5 -5 -5 -5 -5 -5 -5 -5 -5 -5 -5 -6 -5 -5 -5 -5 -4 -4 -4 -4 -4 -4 -4 -4 -4 -4
-2 -2 -2 -2 -2 -3 -3 -3 -3 -4 -4 -5 -6 -6 -6 -6 -6 -5 -6 -5 -5 -6 -6 -6 -6 -6 -5 -5 -5 -5 -5 -4 -4 -4 -4 -4 -5 -5
-3 -3 -3 -3 -3 -3 -3 -3 -3 -3 -4 -4 -5 -6 -6 -6 -6 -6 -6 -7 -8 -7 -7 -6 -6 -6 -5 -5 -5 -5 -5 -4 -5 -5 -5 -5 -5 -5
-3 -3 -3 -3 -3 -3 -3 -3 -3 -3 -3 -4 -4 -4 -4 -5 -5 -6 -7 -7 -7 -6 -7 -7 -6 -6 -5 -5 -5 -5 -5 -5 -5 -5 -5 -5 -6 -6
-4 -4 -4 -4 -4 -4 -4 -4 -4 -4 -4 -4 -4 -4 -4 -5 -5 -5 -5 -6 -7 -7 -7 -7 -6 -6 -6 -6 -5 -5 -5 -5 -6 -6 -6 -6 -6 -6
-4 -4 -4 -4 -4 -4 -5 -5 -5 -5 -5 -5 -5 -5 -5 -5 -5 -6 -6 -7 -8 -7 -7 -7 -6 -6 -6 -6 -5 -5 -6 -6 -6 -6 -6 -6 -6 -7
-4 -4 -4 -4 -4 -4 -5 -5 -5 -5 -5 -5 -5 -5 -5 -5 -6 -6 -6 -7 -7 -7 -7 -7 -7 -7 -7 -6 -6 -5 -6 -6 -6 -6 -6 -6 -7 -7
-4 -4 -4 -4 -4 -4 -5 -5 -5 -5 -5 -5 -6 -6 -6 -6 -6 -6 -6 -6 -7 -7 -6 -7 -7 -7 -8 -7 -6 -6 -6 -6 -6 -6 -6 -6 -7 -8
-4 -4 -4 -4 -4 -4 -5 -5 -5 -5 -5 -5 -6 -6 -6 -6 -7 -7 -6 -7 -7 -7 -7 -7 -7 -7 -8 -8 -8 -7 -7 -7 -7 -7 -6 -7 -7 -8
-4 -4 -4 -4 -4 -5 -5 -5 -5 -5 -5 -5 -6 -6 -6 -6 -6 -7 -7 -7 -7 -7 -7 -7 -7 -8 -8 -8 -8 -8 -8 -8 -8 -7 -7 -8 -8 -8
-4 -4 -4 -4 -5 -5 -5 -5 -6 -6 -6 -6 -6 -6 -6 -6 -6 -6 -7 -7 -7 -7 -7 -7 -8 -8 -8 -9 -9 -9 -9 -9 -8 -8 -9 -9 -9 -10
-4 -4 -4 -5 -5 -5 -5 -5 -6 -6 -6 -6 -6 -6 -6 -6 -6 -7 -7 -7 -7 -7 -7 -7 -8 -8 -9 -9 -9 -9 -9 -9 -9 -9 -10 -11 -11 -11
-4 -4 -5 -5 -5 -5 -5 -6 -6 -6 -6 -6 -6 -6 -6 -6 -7 -7 -7 -7 -7 -7 -7 -8 -8 -9 -9 -9 -9 -9 -9 -9 -9 -10 -11 -12 -11 -11
-5 -5 -5 -5 -5 -6 -6 -6 -6 -6 -6 -6 -6 -6 -6 -7 -7 -7 -7 -8 -8 -8 -8 -8 -9 -10 -11 -11 -9 -9 -10 -10 -11 -11 -12 -12 -12 -11
-5 -5 -6 -6 -6 -6 -6 -6 -6 -6 -7 -7 -7 -7 -7 -7 -7 -7 -8 -8 -8 -8 -9 -9 -9 -9 -10 -11 -11 -10 -10 -11 -11 -12 -12 -12 -12 -11
-6 -6 -6 -6 -6 -6 -6 -6 -7 -7 -7 -7 -7 -7 -7 -7 -7 -8 -8 -8 -9 -9 -9 -9 -9 -10 -11 -12 -12 -11 -10 -10 -11 -12 -12 -12 -12 -12
-6 -6 -6 -6 -6 -6 -6 -7 -7 -7 -7 -7 -7 -7 -7 -8 -8 -8 -8 -9 -9 -9 -9 -9 -9 -10 -11 -12 -12 -12 -11 -10 -10 -11 -12 -12 -12 -12
-6 -6 -6 -6 -6 -7 -7 -7 -7 -7 -7 -7 -7 -8 -8 -8 -8 -8 -9 -9 -9 -10 -10 -10 -10 -10 -11 -11 -12 -12 -12 -12 -12 -12 -11 -11 -11 -11
Wind_Speed
16 17 16 15 14 14 14 14 14 15 15 9 9 10 14 18 24 22 22 28 31 32 33 33 32 31 30 29 27 27 26 25 25 25 25 25 25 25
13 15 17 15 14 13 14 14 15 16 16 7 9 7 10 12 22 22 21 28 31 31 32 32 31 31 30 29 28 28 27 27 26 26 27 27 27 27
14 15 18 15 15 14 13 14 16 16 21 17 8 8 12 12 12 15 19 20 20 29 30 31 31 30 30 29 29 28 28 27 27 27 28 28 28 27
15 15 17 14 17 15 14 16 16 16 19 23 11 8 13 12 11 10 10 15 16 26 29 29 30 30 30 30 29 28 28 28 28 28 28 28 28 28
15 15 16 15 18 15 16 16 15 16 16 19 17 9 9 8 9 10 12 10 12 20 26 28 29 30 30 30 29 29 29 28 28 28 28 28 28 28
15 15 16 16 18 18 16 17 15 16 15 17 16 10 9 7 8 10 11 10 11 12 17 21 24 28 29 30 29 29 28 28 28 28 28 28 28 29
15 15 17 20 23 20 16 14 15 15 15 15 16 12 11 7 9 9 13 9 10 10 9 11 11 11 12 22 26 27 27 27 27 27 28 28 29 29
15 14 15 19 23 28 30 27 22 18 17 16 15 16 13 13 11 11 11 10 10 8 10 12 10 11 10 11 22 25 26 26 26 27 28 28 29 30
13 13 12 13 19 14 20 26 25 28 26 19 19 17 14 14 14 14 13 10 11 7 8 10 9 11 10 15 23 25 26 26 26 27 28 29 30 31
13 13 14 13 13 14 13 14 15 16 18 15 14 15 14 12 14 15 13 12 8 7 8 7 7 10 10 9 21 24 25 26 27 28 28 29 30 31
13 13 14 13 19 23 15 14 15 14 19 24 22 18 22 24 19 12 12 10 10 9 10 7 5 7 8 9 14 23 24 25 26 27 28 29 30 30
11 11 18 18 20 22 14 13 15 12 10 10 13 14 13 17 24 17 13 11 6 7 9 9 6 5 5 6 9 9 13 20 25 26 28 28 29 19
11 9 9 19 21 21 18 12 16 13 9 10 9 8 7 7 8 9 11 10 9 6 7 9 7 7 6 4 4 8 9 10 11 16 22 28 29 24
12 10 11 19 21 21 16 16 19 16 7 7 7 7 7 8 8 8 8 10 9 8 7 8 6 7 6 7 7 5 7 8 10 13 12 21 25 29
12 18 20 21 19 14 16 18 14 8 6 7 8 8 7 7 6 5 6 7 7 7 7 8 8 6 7 8 8 8 8 9 11 13 13 13 14 14
13 15 19 19 14 13 12 10 6 6 6 7 7 7 6 6 7 6 6 6 5 5 7 9 9 9 8 10 11 12 11 8 7 10 12 14 14 15
13 8 7 6 6 6 6 6 6 6 6 4 5 6 7 7 6 6 5 5 5 5 4 4 6 7 10 9 11 13 13 13 13 12 13 16 17 16
16 8 7 7 7 7 7 6 5 5 5 5 5 6 6 7 6 5 4 5 6 6 5 4 4 3 4 9 16 16 14 14 13 13 14 17 19 16
10 8 8 7 7 6 6 5 5 5 4 5 5 5 5 6 5 5 5 5 6 6 6 5 5 6 9 11 8 15 14 13 13 13 14 16 20 18
7 8 8 7 6 6 5 5 4 4 4 4 5 5 5 5 5 5 5 6 6 6 6 6 7 9 11 12 10 9 16 15 14 16 16 16 19 24
8 8 7 7 6 5 4 4 4 4 3 4 4 4 5 5 5 5 5 9 8 6 8 9 9 14 10 8 11 12 11 18 21 17 17 17 19 19
8 7 7 6 5 4 3 3 3 3 3 3 4 4 4 4 5 6 6 6 6 7 9 9 8 7 7 11 15 16 15 13 18 27 29 27 19 16
8 7 6 5 4 3 3 3 3 3 3 4 4 4 4 4 4 5 5 6 6 8 8 9 8 7 9 11 14 15 17 17 14 15 16 24 31 35
Wind_Direction
242 241 242 243 239 237 236 233 243 265 268 229 215 217 220 225 232 235 233 239 243 244 242 242 242 243 245 247 249 251 253 255 256 257 258 258 260 261
243 243 243 244 243 239 237 235 232 242 262 245 214 203 212 224 231 233 231 239 244 245 244 243 242 243 244 245 247 250 252 254 254 256 257 258 259 260
247 245 246 242 244 242 238 237 236 235 251 260 220 207 208 221 233 230 227 232 238 243 244 243 243 244 244 245 247 249 251 253 255 256 257 258 259 261
252 249 250 248 244 243 241 239 238 234 241 257 250 214 219 219 224 226 227 229 228 239 244 246 246 246 246 246 246 249 251 253 255 256 258 259 261 262
256 251 252 248 249 246 241 241 240 239 238 249 255 228 224 219 223 231 233 229 226 235 242 246 248 248 248 247 247 248 250 252 253 255 257 258 260 262
257 254 253 248 249 248 246 243 240 240 239 243 251 242 227 209 213 224 233 227 230 230 238 243 248 249 249 249 248 249 251 252 253 254 255 257 260 262
260 254 252 252 252 252 248 244 238 239 238 241 246 244 232 211 215 215 230 228 227 223 229 238 243 245 247 250 250 251 252 253 253 255 257 259 261 262
265 260 255 259 262 264 262 255 241 234 233 234 238 237 231 221 217 217 223 225 233 210 220 232 227 235 236 236 245 249 252 253 254 255 257 259 261 262
273 270 268 263 266 256 263 267 264 254 242 232 234 233 227 217 214 217 217 216 223 196 196 228 222 231 231 235 241 244 247 250 253 256 258 260 262 263
276 272 271 268 262 262 255 254 255 258 257 250 239 233 225 217 211 213 215 220 224 209 196 223 219 227 229 227 241 245 248 251 254 257 259 261 262 264
276 270 270 267 270 272 265 257 255 253 258 257 253 243 230 224 214 210 211 214 222 219 204 214 222 225 229 232 238 245 250 253 256 259 261 263 264 266
279 269 272 273 274 273 264 258 257 253 242 248 255 258 246 232 224 210 205 209 207 212 196 201 209 201 235 232 229 235 246 254 258 261 263 264 266 268
285 280 269 277 279 278 273 261 259 254 234 231 232 234 232 228 229 218 204 205 205 208 190 187 199 199 218 238 227 227 232 242 252 259 263 264 265 265
289 285 277 280 279 278 276 270 269 264 233 216 219 221 221 220 216 211 206 206 210 209 188 184 196 200 216 241 253 241 232 238 245 254 253 260 263 263
286 285 287 288 286 283 279 278 279 268 236 212 210 215 212 205 193 192 196 202 212 217 205 198 205 208 217 241 253 256 260 256 249 252 254 254 255 257
290 287 289 288 284 277 274 276 266 254 245 224 208 204 192 191 196 193 194 191 205 223 217 212 212 213 230 241 251 259 258 257 250 248 255 259 257 254
293 280 276 272 262 258 256 253 248 244 244 225 205 193 192 196 198 191 188 184 198 211 220 215 219 224 232 240 252 256 259 259 258 258 260 264 261 255
307 292 283 271 265 260 253 248 238 229 219 210 203 193 190 192 190 181 181 190 208 222 229 223 206 229 252 251 238 251 255 258 259 257 257 265 268 260
305 292 283 276 267 256 248 242 236 222 208 201 197 192 187 185 184 188 191 200 217 228 233 221 210 225 258 270 248 231 244 258 263 263 260 261 266 269
290 288 287 282 272 260 249 241 233 218 207 199 191 188 186 184 187 194 199 207 221 232 243 234 224 228 242 262 270 259 253 257 264 268 269 268 268 270
292 288 284 279 272 262 249 234 223 214 199 190 189 186 185 186 197 204 210 229 233 236 246 249 242 249 253 260 268 266 254 257 261 265 271 274 275 274
290 288 285 279 272 261 244 228 216 207 195 194 192 189 189 194 206 213 217 228 236 241 252 260 259 258 247 259 268 277 280 273 268 270 268 265 268 269
293 289 285 280 268 252 236 219 210 206 200 196 195 195 194 204 213 219 226 234 245 253 260 268 266 256 256 259 269 276 280 283 283 280 274 269 268 268
Height
1443 1441 1438 1435 1434 1431 1430 1429 1428 1419 1410 1410 1414 1415 1418 1420 1421 1422 1422 1424 1426 1428 1431 1434 1436 1439 1441 1443 1445 1447 1449 1450 1452 1454 1455 1457 1458 1460
1432 1429 1425 1423 1421 1419 1418 1416 1415 1411 1402 1395 1400 1404 1407 1408 1410 1410 1411 1413 1414 1416 1419 1422 1425 1427 1430 1432 1434 1436 1438 1440 1441 1443 1445 1447 1449 1450
1421 1417 1413 1411 1409 1406 1405 1403 1402 1400 1393 1384 1389 1392 1395 1397 1398 1399 1400 1401 1402 1405 1407 1411 1413 1416 1419 1421 1423 1425 1427 1429 1431 1433 1435 1437 1438 1440
1408 1405 1401 1399 1396 1394 1392 1390 1388 1387 1385 1377 1377 1380 1382 1385 1387 1388 1389 1390 1391 1393 1396 1399 1402 1405 1407 1410 1412 1414 1416 1418 1420 1422 1424 1426 1428 1429
1396 1392 1389 1387 1384 1382 1380 1377 1376 1375 1374 1370 1366 1369 1371 1373 1375 1376 1378 1379 1380 1382 1385 1388 1390 1393 1396 1398 1401 1403 1405 1407 1409 1411 1413 1415 1417 1418
1384 1381 1378 1375 1372 1370 1368 1365 1364 1363 1362 1360 1357 1358 1360 1361 1364 1364 1365 1367 1368 1371 1373 1376 1378 1381 1384 1387 1390 1393 1395 1397 1399 1401 1402 1404 1405 1407
1372 1369 1367 1364 1361 1359 1356 1353 1353 1352 1351 1350 1348 1349 1349 1351 1350 1353 1355 1356 1357 1360 1362 1365 1367 1369 1372 1375 1379 1381 1384 1386 1388 1390 1392 1393 1394 1395
1361 1358 1355 1353 1350 1348 1346 1344 1343 1340 1339 1338 1337 1337 1337 1340 1342 1344 1345 1347 1348 1350 1352 1354 1357 1358 1361 1365 1368 1371 1373 1375 1377 1379 1380 1382 1383 1384
1351 1348 1344 1342 1339 1336 1334 1333 1332 1331 1330 1328 1325 1325 1328 1331 1333 1335 1336 1337 1338 1342 1344 1345 1348 1348 1352 1355 1358 1361 1363 1365 1366 1368 1369 1370 1371 1372
1342 1339 1335 1331 1329 1326 1323 1321 1319 1319 1319 1319 1317 1316 1319 1322 1324 1326 1328 1330 1332 1335 1336 1337 1339 1341 1344 1346 1349 1351 1353 1355 1356 1357 1358 1359 1359 1359
1333 1330 1326 1323 1320 1318 1315 1312 1309 1308 1309 1309 1309 1310 1311 1313 1315 1318 1320 1322 1323 1325 1328 1330 1331 1334 1336 1337 1340 1342 1343 1344 1345 1346 1347 1347 1347 1347
1324 1321 1319 1315 1312 1310 1307 1304 1301 1300 1300 1300 1301 1302 1303 1304 1307 1308 1310 1313 1315 1318 1320 1323 1324 1327 1327 1327 1330 1332 1333 1334 1334 1334 1334 1334 1335 1334
1317 1313 1310 1308 1305 1302 1300 1297 1295 1294 1293 1293 1293 1294 1295 1297 1299 1302 1303 1306 1308 1310 1314 1316 1317 1319 1320 1319 1320 1321 1322 1322 1322 1321 1321 1321 1320 1320
1310 1307 1303 1300 1297 1295 1293 1290 1289 1288 1287 1286 1286 1287 1288 1290 1292 1295 1298 1300 1302 1305 1308 1310 1310 1312 1312 1311 1311 1310 1310 1310 1309 1307 1306 1305 1304 1304
1304 1300 1296 1293 1290 1288 1286 1284 1283 1281 1280 1280 1280 1281 1283 1285 1287 1289 1291 1294 1296 1299 1301 1302 1303 1304 1304 1303 1301 1300 1299 1297 1297 1295 1293 1291 1289 1287
1296 1292 1289 1286 1283 1281 1278 1277 1276 1275 1274 1274 1275 1277 1278 1280 1282 1284 1286 1288 1290 1292 1294 1295 1296 1297 1295 1294 1293 1290 1288 1286 1283 1283 1280 1276 1274 1272
1289 1285 1281 1278 1276 1273 1272 1270 1269 1269 1269 1270 1270 1272 1273 1275 1277 1279 1281 1283 1284 1285 1287 1288 1289 1288 1287 1285 1282 1279 1277 1274 1272 1271 1268 1262 1258 1257
1283 1278 1275 1272 1269 1267 1266 1265 1264 1264 1264 1265 1266 1268 1269 1271 1272 1274 1276 1277 1278 1278 1279 1280 1280 1279 1277 1273 1272 1268 1266 1263 1260 1259 1255 1249 1241 1240
1277 1272 1269 1266 1263 1262 1260 1259 1259 1259 1260 1261 1262 1264 1265 1267 1268 1269 1270 1271 1271 1272 1272 1272 1271 1270 1267 1262 1259 1260 1256 1251 1249 1245 1242 1237 1228 1223
1271 1267 1264 1261 1259 1257 1256 1255 1255 1256 1256 1257 1258 1260 1261 1262 1263 1264 1265 1265 1265 1265 1264 1263 1263 1261 1258 1254 1249 1246 1246 1242 1237 1232 1228 1223 1216 1211
1266 1262 1259 1257 1254 1253 1252 1252 1252 1252 1253 1254 1255 1256 1257 1258 1258 1259 1259 1259 1258 1257 1255 1254 1253 1253 1249 1245 1239 1232 1231 1231 1227 1222 1216 1211 1203 1196
1261 1258 1255 1253 1251 1250 1249 1249 1249 1249 1250 1251 1251 1252 1253 1253 1253 1253 1253 1252 1251 1250 1248 1246 1245 1243 1240 1235 1228 1222 1217 1215 1212 1209 1204 1200 1194 1183
1257 1254 1251 1249 1248 1247 1246 1246 1246 1246 1247 1247 1248 1248 1248 1248 1248 1248 1247 1246 1245 1243 1240 1237 1235 1232 1229 1224 1219 1212 1206 1202 1197 1192 1186 1183 1179 1173